默认 日期 大小 文件数 浏览量 最新下载 xml
the opus磁力链接相关资源由用户搜索指令自动获取,结果来源于网络,本站不存储任何资料,亦不承担任何责任,请于24小时内删除,搜索到2625个磁力,用时52ms。
    {"tsp.NFO": 6164, "The Exception 2016 1080p Bluray OPUS 5.1 H265-TSP.mkv": 2531734024}
创建时间: 2022-08-25 15:50:39 大小:2.36 GB 文件数量:2 热度:10 最近下载:2025-03-04 13:02:03
    {"tsp.NFO": 6862, "Valerian.and.the.City.of.a.Thousand.Planets.2017.1080p.BluRay.HDR10.OPUS.5.1.H265-TSP.mkv": 3179764681}
创建时间: 2022-08-25 17:07:12 大小:2.96 GB 文件数量:2 热度:6 最近下载:2025-01-21 03:01:55
    {"tsp.NFO": 8644, "The.Predator.2018.1080p.Bluray.HDR10.OPUS.7.1.H265-TSP.mkv": 2608228884}
创建时间: 2022-08-25 17:36:35 大小:2.43 GB 文件数量:2 热度:4 最近下载:2025-02-25 21:15:02
    {"tsp.NFO": 5929, "The.Nest.2020.1080p.BluRay.OPUS.5.1.H265-TSP.mkv": 2498093703}
创建时间: 2022-08-25 18:30:58 大小:2.33 GB 文件数量:2 热度:7 最近下载:2025-01-26 15:05:02
    {"tsp.NFO": 7030, "The Gentlemen 2019 1080p WEB-DL HDR10 OPUS 5.1 H265-TSP.mkv": 2570171671}
创建时间: 2022-08-26 06:32:05 大小:2.39 GB 文件数量:2 热度:6 最近下载:2025-01-05 08:32:04
    {"tsp.NFO": 8051, "The Book Thief 2013 1080p BluRay OPUS 5.1 H265 - TSP.mkv": 3228964572}
创建时间: 2022-08-26 21:17:47 大小:3.01 GB 文件数量:2 热度:5 最近下载:2025-01-21 17:31:03
    ... , "The Klezmatics - Davenen.opus": 4213598, "The Klezmatics - Dzhankoye.opus": 3182760, "The Klezmatics - Fisherlid.opus": 8623355, "The Klezmatics ...
创建时间: 2022-08-28 18:28:20 大小:76.96 MB 文件数量:23 热度:3 最近下载:2025-01-04 15:30:06
    {"tsp.NFO": 8937, "Being.the.Ricardos.2021.1080p.AMZN.WEB.OPUS.5.1.H265-TSP.mkv": 3059460618}
创建时间: 2022-08-28 19:23:52 大小:2.85 GB 文件数量:2 热度:3 最近下载:2025-01-04 17:43:01
    ... baila.opus": 2809035, "Zedd - 365 (& Katy Perry).opus": 3188025, "The Cranberries - The pressure.opus": 3508304 ... , "AT Luv - Escaped (& Nicky Ross).opus ...
创建时间: 2022-08-28 22:15:25 大小:238.79 MB 文件数量:77 热度:6 最近下载:2025-02-07 14:14:01
    {"RARBG.txt": 30, "RARBG_DO_NOT_MIRROR.exe": 99, "Belly.of.the.Beast.2020.720p.WEB.h264-OPUS.mkv": 2785132203, "belly.of.the.beast.2020.720p.web.h264-opus.nfo": 1678}
创建时间: 2022-08-28 23:37:49 大小:2.59 GB 文件数量:4 热度:4 最近下载:2025-01-06 02:54:04
    {"[Hakata Ramen] House of the Dragon S01E01.ske": 1155, "[HR] House of the Dragon S01E01 [83302FE9].mkv": 1049615090}
创建时间: 2022-08-29 18:51:12 大小:1000.99 MB 文件数量:2 热度:8 最近下载:2025-02-17 21:22:01
    {"[Hakata Ramen] Tales of the Walking Dead S01E03.ske": 885, "[HR] Tales of the Walking Dead S01E03 [3E8939DE].mkv": 903679262}
创建时间: 2022-08-30 21:16:07 大小:861.82 MB 文件数量:2 热度:3 最近下载:2025-02-17 12:36:02
    {"[Hakata Ramen] House of the Dragon S01E02.ske": 1183, "[HR] House of the Dragon S01E02 [EE21E652].mkv": 717370752}
创建时间: 2022-08-31 23:10:47 大小:684.14 MB 文件数量:2 热度:7 最近下载:2025-06-20 12:29:01
    ... .mkv": 1423708208, "the boys s03e02 1080p WEB-DL HDR OPUS 5.1 ... .mkv": 1375943416, "the boys s03e03 1080p WEB-DL HDR OPUS 5.1 ... .mkv": 1420804081, "the boys s03e04 1080p WEB-DL HDR OPUS 5.1 ... .mkv": 1429231370, "the boys s03e05 1080p WEB-DL HDR OPUS 5.1 ...
创建时间: 2022-09-02 15:19:45 大小:10.53 GB 文件数量:9 热度:10 最近下载:2025-02-15 15:50:05
    {"[Hakata Ramen] Tales of the Walking Dead S01E04.ske": 1015, "[HR] Tales of the Walking Dead S01E04 [24FE843E].mkv": 1779677972}
创建时间: 2022-09-03 08:48:31 大小:1.66 GB 文件数量:2 热度:3 最近下载:2025-01-07 21:23:04
    ... , "[Hakata Ramen] Nisman The Prosecutor, the President, and the Spy S01 (2020).ske ...
创建时间: 2022-09-03 17:37:37 大小:9.54 GB 文件数量:7 热度:12 最近下载:2025-09-19 04:18:02
    {"[HR The Rings of Power S01E02 [FE734286].mkv": 1562785690, "[Hakata Ramen] The Rings of Power S01E02.ske": 1393}
创建时间: 2022-09-03 22:11:26 大小:1.46 GB 文件数量:2 热度:6 最近下载:2025-06-30 18:17:02
    {"RARBG.txt": 30, "RARBG_DO_NOT_MIRROR.exe": 99, "Making.Waves.The.Art.of.Cinematic.Sound.2019.1080p.WEB.h264-OPUS.mkv": 6896934483, "making.waves.the.art.of.cinematic.sound.2019.1080p.web.h264-opus.nfo": 1678}
创建时间: 2022-09-04 18:41:58 大小:6.42 GB 文件数量:4 热度:9 最近下载:2025-09-21 19:21:04
    ... , "02. Galadriel.opus": 3754512, "34. The Mystics.opus": 7624009, "05. The Stranger.opus": 5006592, "12 ... .opus": 5842504, "09. In the Beginning.opus": 7711712, "30. The Promised King.opus": 4315896, "33. The ...
创建时间: 2022-09-05 16:32:36 大小:149.48 MB 文件数量:40 热度:5 最近下载:2025-02-06 00:54:01
    {"[HR The Rings of Power S01E01 [24854C18].mkv": 1686897975, "[Hakata Ramen] The Rings of Power S01E01.ske": 1450}
创建时间: 2022-09-05 18:10:27 大小:1.57 GB 文件数量:2 热度:4 最近下载:2025-08-08 08:02:18